When you browse on this site, cookies collect data to enhance your experience and personalize the content and advertising you see.
Visit our Privacy Policy to learn more. By continuing to use the site, you agree to this use of cookies and data.
  • In Österreich
  • Länderverzeichnis
  • Für 7 Tage
  • Wassertemperatur
  • Satellitenkarten
  • Wetterkarte
  • News
  • Widgets
  • user-avatar
    Anmelden

    Stündliche Wetter Tallahassee

    Heute, 20 Juli, Samstag

    Zeit Temperatur Niederschläge Wind Luftdruck Luftfeuchtigkeit
    00:00 +23°C° 0 mm 0 m/S 759 mmHg 88%
    01:00 +22°C° 0 mm 0 m/S 759 mmHg 89%
    02:00 +24°C° 0 mm 1 m/S 759 mmHg 90%
    03:00 +24°C° 0 mm 1 m/S 758 mmHg 90%
    04:00 +24°C° 0 mm 1 m/S 759 mmHg 89%
    05:00 +25°C° 0 mm 1 m/S 759 mmHg 87%
    06:00 +25°C° 0 mm 1 m/S 760 mmHg 85%
    07:00 +26°C° 0 mm 0 m/S 760 mmHg 74%
    08:00 +29°C° 0 mm 0 m/S 760 mmHg 64%
    09:00 +32°C° 0 mm 0 m/S 760 mmHg 54%
    10:00 +35°C° 0 mm 1 m/S 760 mmHg 49%
    11:00 +36°C° 0 mm 1 m/S 760 mmHg 45%
    12:00 +37°C° 0 mm 1 m/S 760 mmHg 41%
    13:00 +37°C° 0.1 mm 2 m/S 759 mmHg 45%
    14:00 +36°C° 0.1 mm 2 m/S 759 mmHg 49%
    15:00 +35°C° 0.1 mm 2 m/S 758 mmHg 53%
    16:00 +32°C° 0.3 mm 2 m/S 758 mmHg 59%
    17:00 +31°C° 0.3 mm 1 m/S 758 mmHg 66%
    18:00 +30°C° 0.3 mm 1 m/S 758 mmHg 72%
    19:00 +29°C° 0.1 mm 1 m/S 758 mmHg 76%
    20:00 +26°C° 0.1 mm 0 m/S 759 mmHg 80%
    21:00 +25°C° 0.1 mm 0 m/S 759 mmHg 83%
    22:00 +25°C° 0 mm 0 m/S 759 mmHg 84%
    23:00 +24°C° 0 mm 0 m/S 759 mmHg 85%

    Morgen, 21 Juli, Sonntag

    Zeit Temperatur Niederschläge Wind Luftdruck Luftfeuchtigkeit
    00:00 +24°C° 0 mm 0 m/S 759 mmHg 86%
    01:00 +24°C° 0 mm 0 m/S 759 mmHg 87%
    02:00 +23°C° 0 mm 0 m/S 758 mmHg 87%
    03:00 +23°C° 0 mm 0 m/S 758 mmHg 88%
    04:00 +24°C° 0 mm 0 m/S 759 mmHg 87%
    05:00 +24°C° 0 mm 0 m/S 759 mmHg 86%
    06:00 +24°C° 0 mm 0 m/S 759 mmHg 84%
    07:00 +27°C° 0 mm 0 m/S 759 mmHg 74%
    08:00 +31°C° 0 mm 1 m/S 760 mmHg 64%
    09:00 +34°C° 0 mm 1 m/S 760 mmHg 54%
    10:00 +35°C° 0 mm 1 m/S 760 mmHg 49%
    11:00 +37°C° 0 mm 1 m/S 759 mmHg 44%
    12:00 +39°C° 0 mm 1 m/S 759 mmHg 39%
    13:00 +37°C° 0 mm 1 m/S 759 mmHg 41%
    14:00 +37°C° 0 mm 1 m/S 759 mmHg 42%
    15:00 +37°C° 0 mm 2 m/S 758 mmHg 44%
    16:00 +36°C° 0 mm 2 m/S 758 mmHg 50%
    17:00 +33°C° 0 mm 1 m/S 758 mmHg 57%
    18:00 +31°C° 0 mm 1 m/S 758 mmHg 64%
    19:00 +30°C° 0.3 mm 1 m/S 758 mmHg 68%
    20:00 +29°C° 0.3 mm 1 m/S 759 mmHg 73%
    21:00 +28°C° 0.3 mm 1 m/S 759 mmHg 77%
    22:00 +28°C° 0.2 mm 1 m/S 759 mmHg 80%
    23:00 +27°C° 0.2 mm 1 m/S 759 mmHg 82%

    übermorgen, 22 Juli, Montag

    Zeit Temperatur Niederschläge Wind Luftdruck Luftfeuchtigkeit
    00:00 +26°C° 0.2 mm 1 m/S 758 mmHg 85%
    01:00 +24°C° 0 mm 0 m/S 758 mmHg 85%
    02:00 +24°C° 0 mm 0 m/S 758 mmHg 85%
    03:00 +24°C° 0 mm 0 m/S 758 mmHg 85%
    04:00 +24°C° 0 mm 0 m/S 758 mmHg 84%
    05:00 +25°C° 0 mm 0 m/S 758 mmHg 83%
    06:00 +25°C° 0 mm 0 m/S 759 mmHg 82%
    07:00 +27°C° 0.1 mm 0 m/S 759 mmHg 73%
    08:00 +29°C° 0.1 mm 0 m/S 759 mmHg 64%
    09:00 +34°C° 0.1 mm 1 m/S 760 mmHg 55%
    10:00 +35°C° 0 mm 1 m/S 759 mmHg 50%
    11:00 +37°C° 0 mm 1 m/S 759 mmHg 45%
    12:00 +39°C° 0 mm 1 m/S 759 mmHg 40%
    13:00 +37°C° 0 mm 1 m/S 758 mmHg 43%
    14:00 +37°C° 0 mm 2 m/S 758 mmHg 47%
    15:00 +36°C° 0 mm 2 m/S 757 mmHg 50%
    16:00 +34°C° 0.4 mm 2 m/S 757 mmHg 57%
    17:00 +32°C° 0.4 mm 2 m/S 757 mmHg 64%
    18:00 +30°C° 0.4 mm 1 m/S 757 mmHg 71%
    19:00 +29°C° 0.7 mm 1 m/S 757 mmHg 75%
    20:00 +28°C° 0.7 mm 1 m/S 758 mmHg 79%
    21:00 +25°C° 0.7 mm 0 m/S 758 mmHg 84%
    22:00 +27°C° 0 mm 1 m/S 758 mmHg 84%
    23:00 +27°C° 0 mm 1 m/S 757 mmHg 85%

    23 Juli, Dienstag

    Zeit Temperatur Niederschläge Wind Luftdruck Luftfeuchtigkeit
    00:00 +27°C° 0 mm 1 m/S 757 mmHg 86%
    01:00 +26°C° 0 mm 1 m/S 757 mmHg 87%
    02:00 +26°C° 0 mm 1 m/S 757 mmHg 88%
    03:00 +26°C° 0 mm 1 m/S 757 mmHg 89%
    04:00 +26°C° 0 mm 1 m/S 757 mmHg 88%
    05:00 +24°C° 0 mm 0 m/S 757 mmHg 87%
    06:00 +25°C° 0 mm 0 m/S 757 mmHg 86%
    07:00 +29°C° 0.2 mm 1 m/S 758 mmHg 77%
    08:00 +31°C° 0.2 mm 1 m/S 758 mmHg 68%
    09:00 +33°C° 0.2 mm 1 m/S 758 mmHg 58%
    10:00 +34°C° 0.4 mm 2 m/S 757 mmHg 56%
    11:00 +35°C° 0.4 mm 2 m/S 757 mmHg 55%
    12:00 +35°C° 0.4 mm 3 m/S 757 mmHg 53%
    13:00 +35°C° 0.3 mm 3 m/S 756 mmHg 53%
    14:00 +35°C° 0.3 mm 3 m/S 756 mmHg 54%
    15:00 +35°C° 0.3 mm 3 m/S 755 mmHg 54%
    16:00 +33°C° 1.3 mm 3 m/S 755 mmHg 62%
    17:00 +30°C° 1.3 mm 3 m/S 755 mmHg 71%
    18:00 +29°C° 1.3 mm 3 m/S 756 mmHg 79%
    19:00 +27°C° 0.8 mm 2 m/S 756 mmHg 84%
    20:00 +26°C° 0.8 mm 2 m/S 756 mmHg 90%
    21:00 +25°C° 0.8 mm 1 m/S 757 mmHg 95%
    22:00 +25°C° 0 mm 1 m/S 756 mmHg 95%
    23:00 +23°C° 0 mm 0 m/S 756 mmHg 95%

    24 Juli, Mittwoch

    Zeit Temperatur Niederschläge Wind Luftdruck Luftfeuchtigkeit
    00:00 +23°C° 0 mm 0 m/S 756 mmHg 95%
    01:00 +23°C° 0 mm 0 m/S 755 mmHg 95%
    02:00 +23°C° 0 mm 0 m/S 755 mmHg 95%
    03:00 +23°C° 0 mm 0 m/S 755 mmHg 95%
    04:00 +23°C° 0 mm 0 m/S 755 mmHg 94%
    05:00 +23°C° 0 mm 0 m/S 756 mmHg 93%
    06:00 +23°C° 0 mm 0 m/S 756 mmHg 92%
    07:00 +23°C° 0.5 mm 0 m/S 756 mmHg 93%
    08:00 +23°C° 0.5 mm 0 m/S 756 mmHg 93%
    09:00 +25°C° 0.5 mm 1 m/S 757 mmHg 94%
    10:00 +26°C° 0.3 mm 1 m/S 757 mmHg 88%
    11:00 +27°C° 0.3 mm 1 m/S 756 mmHg 82%
    12:00 +28°C° 0.3 mm 1 m/S 756 mmHg 76%
    13:00 +29°C° 0.3 mm 1 m/S 756 mmHg 73%
    14:00 +30°C° 0.3 mm 1 m/S 756 mmHg 70%
    15:00 +31°C° 0.3 mm 2 m/S 755 mmHg 67%
    16:00 +30°C° 0.1 mm 1 m/S 755 mmHg 69%
    17:00 +30°C° 0.1 mm 1 m/S 755 mmHg 71%
    18:00 +27°C° 0.1 mm 0 m/S 756 mmHg 74%
    19:00 +26°C° 0.2 mm 0 m/S 756 mmHg 78%
    20:00 +25°C° 0.2 mm 0 m/S 756 mmHg 82%
    21:00 +24°C° 0.2 mm 0 m/S 756 mmHg 86%
    22:00 +23°C° 0 mm 0 m/S 756 mmHg 87%
    23:00 +23°C° 0 mm 0 m/S 756 mmHg 89%

    25 Juli, Donnerstag

    Zeit Temperatur Niederschläge Wind Luftdruck Luftfeuchtigkeit
    00:00 +23°C° 0 mm 0 m/S 756 mmHg 90%
    01:00 +22°C° 0 mm 0 m/S 756 mmHg 91%
    02:00 +24°C° 0 mm 1 m/S 756 mmHg 92%
    03:00 +24°C° 0 mm 1 m/S 756 mmHg 93%
    04:00 +24°C° 0 mm 1 m/S 757 mmHg 93%
    05:00 +24°C° 0 mm 1 m/S 757 mmHg 92%
    06:00 +25°C° 0 mm 1 m/S 757 mmHg 92%
    07:00 +27°C° 0 mm 1 m/S 758 mmHg 82%
    08:00 +29°C° 0 mm 1 m/S 758 mmHg 73%
    09:00 +31°C° 0 mm 1 m/S 758 mmHg 64%
    10:00 +33°C° 0 mm 1 m/S 758 mmHg 56%
    11:00 +35°C° 0 mm 1 m/S 758 mmHg 49%
    12:00 +35°C° 0 mm 0 m/S 758 mmHg 41%
    13:00 +36°C° 0 mm 1 m/S 758 mmHg 42%
    14:00 +35°C° 0 mm 1 m/S 758 mmHg 42%
    15:00 +36°C° 0 mm 2 m/S 757 mmHg 43%
    16:00 +34°C° 0.7 mm 2 m/S 758 mmHg 56%
    17:00 +30°C° 0.7 mm 1 m/S 758 mmHg 68%
    18:00 +28°C° 0.7 mm 1 m/S 758 mmHg 81%
    19:00 +27°C° 0.2 mm 1 m/S 758 mmHg 84%
    20:00 +26°C° 0.2 mm 1 m/S 759 mmHg 87%
    21:00 +26°C° 0.2 mm 2 m/S 759 mmHg 89%
    22:00 +25°C° 0 mm 1 m/S 759 mmHg 90%
    23:00 +25°C° 0 mm 1 m/S 759 mmHg 90%
    Mehr zeigen